Simultaneous Nadir Overpasses (SNOs) Predictions

Prediction of SNOs between LANDSAT-8 and METOP-A Satellite Orbit:

Table of predicted SNOs for the next 14.0 days since TLE Epoch: 1/22/2016
Index Date (LANDSAT-8) Time (LANDSAT-8) Lat,Lon (LANDSAT-8) SZA (LANDSAT-8 ) Date (METOP-A) Time (METOP-A) Lat,Lon (METOP-A) SZA (METOP-A ) Distance(km) Time Diff (sec)
1 01/23/2016 01:39:14 81.12,-165.16 102.37 01/23/2016 01:38:44 81.12,-165.00 102.38 2.74 30
2 01/23/2016 02:28:40 -81.13, 2.77 77.60 01/23/2016 02:29:23 -81.14, 2.89 77.57 2.11 43
3 01/25/2016 21:13:29 81.11, -98.78 101.68 01/25/2016 21:13:07 81.12, -98.69 101.68 1.68 22
4 01/25/2016 22:02:55 -81.13, 69.17 78.29 01/25/2016 22:03:46 -81.14, 69.21 78.27 0.78 51
5 01/28/2016 16:47:42 81.13, -32.13 100.98 01/28/2016 16:47:28 81.12, -32.04 100.98 1.43 14
6 01/28/2016 17:37:08 -81.15, 135.85 78.99 01/28/2016 17:38:07 -81.14, 135.87 78.97 0.62 59
7 01/31/2016 12:21:57 81.11, 34.08 100.18 01/31/2016 12:21:51 81.12, 34.18 100.19 1.87 6
8 01/31/2016 13:11:23 -81.13,-157.91 79.79 01/31/2016 13:12:30 -81.14,-157.88 79.75 0.61 67
9 02/03/2016 07:06:46 -81.09, -67.42 80.67 02/03/2016 07:05:34 -81.10, -67.30 80.68 2.10 72
10 02/03/2016 07:56:11 81.11, 100.58 99.38 02/03/2016 07:56:13 81.12, 100.75 99.40 3.07 2




NCC Satellite Simultaneous Nadir Overpasses (SNOs) Prediction Service
